Bartlesville, OK

8:47 AM CST on February 12, 2016 (GMT -0600)
Bartlesville Municipal

Weather History for KBVO - December, 2012

Change the Weather History Date:

Thursday, December 6, 2012

  Actual Average Record
Temperature  
Mean Temperature 48 °F -  
Max Temperature 61 °F 52 °F 74 °F (1966)
Min Temperature 36 °F 30 °F 1 °F (1950)
Degree Days  
Heating Degree Days 16    
Moisture  
Dew Point 42 °F    
Average Humidity 79    
Maximum Humidity 97    
Minimum Humidity 62    
Precipitation  
Precipitation 0.00 in - - ()
Sea Level Pressure  
Sea Level Pressure 29.90 in    
Wind  
Wind Speed 5 mph (SSE)    
Max Wind Speed 17 mph    
Max Gust Speed 24 mph    
Visibility 10 miles    
Events      
Averages and records for this station are not official NWS values.
T = Trace of Precipitation, MM = Missing Value Source: NWS Daily Summary

Daily Weather History Graph

Daily Weather History Graph

Search for Another Location

Airport or City:

Trip Planner

Search our weather history database for the weather conditions in past years. The results will help you decide how hot, cold, wet, or windy it might be!

Date:

Astronomy

Dec. 06, 2012 Rise Set
Actual Time 7:22 AM CST 5:07 PM CST
Civil Twilight 6:54 AM CST 5:36 PM CST
Nautical Twilight 6:22 AM CST 6:08 PM CST
Astronomical Twilight 5:50 AM CST 6:39 PM CST
Moon No Moon Rise 12:24 PM CST (12/6)
Length of Visible Light 10h 42m
Length of Day
9h 44m
Waning Gibbous, 49% of the Moon is Illuminated
Dec 6
Waning Gibbous
Dec 13
New
Dec 19
First Quarter
Dec 28
Full
Jan 4
Last Quarter

Hourly Weather History & Observations

Time (CST) Temp. Windchill Dew Point Humidity Pressure Visibility Wind Dir Wind Speed Gust Speed Precip Events Conditions
12:53 AM 36.0 °F 32.1 °F 30.9 °F 82% 30.01 in 10.0 mi SSW 4.6 mph - N/A   Clear
1:53 AM 41.0 °F 38.0 °F 34.0 °F 76% 30.00 in 10.0 mi South 4.6 mph - N/A   Clear
2:53 AM 42.1 °F 39.2 °F 36.0 °F 79% 29.99 in 10.0 mi South 4.6 mph - N/A   Clear
3:53 AM 37.0 °F 32.4 °F 34.0 °F 89% 29.97 in 10.0 mi SSE 5.8 mph - N/A   Clear
4:53 AM 39.9 °F 37.8 °F 36.0 °F 86% 29.94 in 10.0 mi South 3.5 mph - N/A   Clear
5:53 AM 39.9 °F - 35.1 °F 83% 29.95 in 10.0 mi Calm Calm - N/A   Clear
6:53 AM 36.0 °F - 35.1 °F 97% 29.96 in 10.0 mi Calm Calm - N/A   Clear
7:53 AM 37.0 °F - 36.0 °F 96% 29.95 in 10.0 mi Calm Calm - N/A   Partly Cloudy
8:13 AM 39.2 °F - 37.4 °F 93% 29.94 in 10.0 mi Calm Calm - N/A   Mostly Cloudy
8:53 AM 46.0 °F 41.9 °F 42.1 °F 86% 29.93 in 10.0 mi SSE 8.1 mph - N/A   Overcast
9:53 AM 48.9 °F - 45.0 °F 86% 29.94 in 10.0 mi South 10.4 mph - N/A   Overcast
10:53 AM 52.0 °F - 46.9 °F 83% 29.93 in 10.0 mi SSE 13.8 mph - N/A   Overcast
11:46 AM 57.2 °F - 46.4 °F 67% 29.90 in 10.0 mi SSE 17.3 mph 24.2 mph N/A   Scattered Clouds
11:53 AM 55.9 °F - 46.9 °F 72% 29.89 in 10.0 mi SSE 16.1 mph 24.2 mph N/A   Partly Cloudy
12:53 PM 59.0 °F - 48.0 °F 67% 29.84 in 10.0 mi SSE 12.7 mph - N/A   Clear
1:53 PM 60.1 °F - 48.0 °F 64% 29.81 in 10.0 mi SSE 13.8 mph 18.4 mph N/A   Clear
2:53 PM 61.0 °F - 48.0 °F 62% 29.81 in 10.0 mi South 10.4 mph - N/A   Clear
3:53 PM 59.0 °F - 48.0 °F 67% 29.82 in 10.0 mi SE 8.1 mph - N/A   Scattered Clouds
4:53 PM 57.9 °F - 48.0 °F 70% 29.83 in 10.0 mi East 5.8 mph - N/A   Overcast
5:53 PM 57.0 °F - 46.9 °F 69% 29.84 in 10.0 mi SE 5.8 mph - N/A   Overcast
6:53 PM 55.9 °F - 46.9 °F 72% 29.86 in 10.0 mi SE 3.5 mph - N/A   Overcast
7:53 PM 55.9 °F - 46.9 °F 72% 29.87 in 10.0 mi Calm Calm - N/A   Overcast
8:53 PM 53.1 °F - 46.0 °F 77% 29.87 in 10.0 mi Calm Calm - N/A   Overcast
9:53 PM 51.1 °F - 46.9 °F 86% 29.87 in 10.0 mi Calm Calm - N/A   Overcast
11:53 PM 48.9 °F - 46.0 °F 90% 29.87 in 10.0 mi Calm Calm - N/A   Mostly Cloudy